Hourly Weather Kozuszkowo

Today, 22 October, Thursday

Time Temperature Precipitation Wind Pressure Humidity
00:00 +10°C° 0 mm 6 mps 749 mmHg 70%
01:00 +10°C° 0 mm 6 mps 749 mmHg 69%
02:00 +10°C° 0 mm 6 mps 748 mmHg 69%
03:00 +10°C° 0 mm 6 mps 748 mmHg 68%
04:00 +10°C° 0 mm 6 mps 748 mmHg 67%
05:00 +11°C° 0 mm 6 mps 749 mmHg 68%
06:00 +11°C° 0 mm 6 mps 749 mmHg 68%
07:00 +11°C° 0 mm 6 mps 750 mmHg 69%
08:00 +12°C° 0 mm 7 mps 750 mmHg 67%
09:00 +15°C° 0 mm 7 mps 750 mmHg 66%
10:00 +16°C° 0 mm 7 mps 751 mmHg 64%
11:00 +17°C° 0 mm 7 mps 751 mmHg 64%
12:00 +17°C° 0 mm 6 mps 751 mmHg 64%
13:00 +19°C° 0 mm 6 mps 751 mmHg 64%
14:00 +17°C° 0 mm 5 mps 751 mmHg 67%
15:00 +17°C° 0 mm 4 mps 751 mmHg 70%
16:00 +17°C° 0 mm 4 mps 751 mmHg 73%
17:00 +15°C° 0 mm 4 mps 751 mmHg 75%
18:00 +15°C° 0 mm 4 mps 751 mmHg 77%
19:00 +14°C° 0 mm 4 mps 751 mmHg 80%
20:00 +14°C° 0 mm 4 mps 751 mmHg 81%
21:00 +13°C° 0 mm 4 mps 751 mmHg 81%
22:00 +13°C° 0 mm 4 mps 751 mmHg 82%
23:00 +13°C° 0 mm 4 mps 751 mmHg 82%

Tomorrow, 23 October, Friday

Time Temperature Precipitation Wind Pressure Humidity
00:00 +13°C° 0 mm 4 mps 751 mmHg 81%
01:00 +13°C° 0 mm 4 mps 751 mmHg 81%
02:00 +13°C° 0 mm 5 mps 750 mmHg 80%
03:00 +13°C° 0 mm 5 mps 750 mmHg 80%
04:00 +13°C° 0 mm 5 mps 750 mmHg 79%
05:00 +13°C° 0 mm 5 mps 750 mmHg 82%
06:00 +13°C° 0 mm 4 mps 750 mmHg 84%
07:00 +13°C° 0 mm 4 mps 749 mmHg 87%
08:00 +14°C° 0 mm 4 mps 749 mmHg 84%
09:00 +15°C° 0 mm 4 mps 750 mmHg 81%
10:00 +15°C° 0 mm 5 mps 750 mmHg 78%
11:00 +17°C° 0 mm 4 mps 750 mmHg 76%
12:00 +18°C° 0 mm 4 mps 749 mmHg 74%
13:00 +18°C° 0 mm 4 mps 749 mmHg 72%
14:00 +18°C° 0 mm 3 mps 749 mmHg 75%
15:00 +17°C° 0 mm 2 mps 749 mmHg 79%
16:00 +16°C° 0 mm 2 mps 749 mmHg 82%
17:00 +16°C° 0.2 mm 2 mps 749 mmHg 85%
18:00 +15°C° 0.2 mm 2 mps 749 mmHg 88%
19:00 +15°C° 0.2 mm 2 mps 749 mmHg 90%
20:00 +15°C° 1.4 mm 2 mps 749 mmHg 93%
21:00 +14°C° 1.4 mm 2 mps 749 mmHg 95%
22:00 +14°C° 1.4 mm 1 mps 749 mmHg 97%
23:00 +14°C° 1.6 mm 2 mps 749 mmHg 97%

Day after tomorrow, 24 October, Saturday

Time Temperature Precipitation Wind Pressure Humidity
00:00 +14°C° 1.6 mm 2 mps 749 mmHg 97%
01:00 +14°C° 1.6 mm 2 mps 749 mmHg 97%
02:00 +14°C° 1 mm 2 mps 748 mmHg 97%
03:00 +14°C° 1 mm 2 mps 748 mmHg 97%
04:00 +14°C° 1 mm 2 mps 748 mmHg 98%
05:00 +14°C° 0.3 mm 2 mps 748 mmHg 96%
06:00 +14°C° 0.3 mm 2 mps 748 mmHg 95%
07:00 +14°C° 0.3 mm 2 mps 749 mmHg 93%
08:00 +13°C° 0 mm 3 mps 749 mmHg 88%
09:00 +14°C° 0 mm 4 mps 749 mmHg 83%
10:00 +15°C° 0 mm 5 mps 750 mmHg 78%
11:00 +15°C° 0 mm 5 mps 750 mmHg 75%
12:00 +15°C° 0 mm 6 mps 750 mmHg 72%
13:00 +16°C° 0 mm 6 mps 751 mmHg 68%
14:00 +15°C° 0 mm 6 mps 751 mmHg 71%
15:00 +14°C° 0 mm 5 mps 751 mmHg 73%
16:00 +13°C° 0 mm 4 mps 751 mmHg 76%
17:00 +12°C° 0 mm 4 mps 752 mmHg 78%
18:00 +12°C° 0 mm 3 mps 752 mmHg 81%
19:00 +12°C° 0 mm 2 mps 753 mmHg 84%
20:00 +12°C° 0 mm 2 mps 753 mmHg 84%
21:00 +11°C° 0 mm 3 mps 753 mmHg 84%
22:00 +11°C° 0 mm 3 mps 753 mmHg 85%
23:00 +11°C° 0 mm 3 mps 753 mmHg 85%

, 25 October, Sunday

Time Temperature Precipitation Wind Pressure Humidity
00:00 +11°C° 0 mm 3 mps 753 mmHg 85%
01:00 +11°C° 0 mm 3 mps 753 mmHg 85%
02:00 +11°C° 0 mm 3 mps 753 mmHg 86%
03:00 +11°C° 0 mm 3 mps 753 mmHg 86%
04:00 +10°C° 0 mm 3 mps 753 mmHg 87%
05:00 +10°C° 0 mm 3 mps 753 mmHg 87%
06:00 +10°C° 0 mm 3 mps 753 mmHg 88%
07:00 +9°C° 0 mm 3 mps 753 mmHg 89%
08:00 +11°C° 0 mm 3 mps 753 mmHg 84%
09:00 +12°C° 0 mm 3 mps 753 mmHg 78%
10:00 +13°C° 0 mm 4 mps 753 mmHg 73%
11:00 +14°C° 0 mm 4 mps 753 mmHg 70%
12:00 +15°C° 0 mm 4 mps 753 mmHg 67%
13:00 +17°C° 0 mm 4 mps 752 mmHg 63%
14:00 +17°C° 0 mm 4 mps 752 mmHg 67%
15:00 +16°C° 0 mm 3 mps 752 mmHg 71%
16:00 +14°C° 0 mm 3 mps 751 mmHg 75%
17:00 +13°C° 0 mm 3 mps 751 mmHg 78%
18:00 +12°C° 0 mm 3 mps 751 mmHg 81%
19:00 +12°C° 0 mm 4 mps 751 mmHg 84%
20:00 +11°C° 0 mm 4 mps 751 mmHg 84%
21:00 +11°C° 0 mm 4 mps 751 mmHg 85%
22:00 +11°C° 0 mm 4 mps 751 mmHg 85%
23:00 +10°C° 0 mm 4 mps 751 mmHg 86%

25 October, Sunday

Time Temperature Precipitation Wind Pressure Humidity
00:00 +11°C° 0 mm 3 mps 753 mmHg 85%
01:00 +11°C° 0 mm 3 mps 753 mmHg 85%
02:00 +11°C° 0 mm 3 mps 753 mmHg 86%
03:00 +11°C° 0 mm 3 mps 753 mmHg 86%
04:00 +10°C° 0 mm 3 mps 753 mmHg 87%
05:00 +10°C° 0 mm 3 mps 753 mmHg 87%
06:00 +10°C° 0 mm 3 mps 753 mmHg 88%
07:00 +9°C° 0 mm 3 mps 753 mmHg 89%
08:00 +11°C° 0 mm 3 mps 753 mmHg 84%
09:00 +12°C° 0 mm 3 mps 753 mmHg 78%
10:00 +13°C° 0 mm 4 mps 753 mmHg 73%
11:00 +14°C° 0 mm 4 mps 753 mmHg 70%
12:00 +15°C° 0 mm 4 mps 753 mmHg 67%
13:00 +17°C° 0 mm 4 mps 752 mmHg 63%
14:00 +17°C° 0 mm 4 mps 752 mmHg 67%
15:00 +16°C° 0 mm 3 mps 752 mmHg 71%
16:00 +14°C° 0 mm 3 mps 751 mmHg 75%
17:00 +13°C° 0 mm 3 mps 751 mmHg 78%
18:00 +12°C° 0 mm 3 mps 751 mmHg 81%
19:00 +12°C° 0 mm 4 mps 751 mmHg 84%
20:00 +11°C° 0 mm 4 mps 751 mmHg 84%
21:00 +11°C° 0 mm 4 mps 751 mmHg 85%
22:00 +11°C° 0 mm 4 mps 751 mmHg 85%
23:00 +10°C° 0 mm 4 mps 751 mmHg 86%

26 October, Monday

Time Temperature Precipitation Wind Pressure Humidity
00:00 +10°C° 0 mm 4 mps 750 mmHg 87%
01:00 +10°C° 0 mm 4 mps 750 mmHg 88%
02:00 +8°C° 0 mm 4 mps 750 mmHg 89%
03:00 +8°C° 0 mm 4 mps 750 mmHg 90%
04:00 +9°C° 0 mm 3 mps 749 mmHg 91%
05:00 +8°C° 0 mm 4 mps 749 mmHg 92%
06:00 +7°C° 0 mm 4 mps 749 mmHg 92%
07:00 +7°C° 0 mm 4 mps 749 mmHg 93%
08:00 +8°C° 0 mm 4 mps 748 mmHg 88%
09:00 +11°C° 0 mm 4 mps 748 mmHg 83%
10:00 +12°C° 0 mm 4 mps 748 mmHg 78%
11:00 +13°C° 0 mm 4 mps 748 mmHg 75%
12:00 +14°C° 0 mm 5 mps 747 mmHg 72%
13:00 +15°C° 0 mm 5 mps 747 mmHg 69%
14:00 +14°C° 0 mm 4 mps 747 mmHg 72%
15:00 +14°C° 0 mm 3 mps 746 mmHg 75%
16:00 +13°C° 0 mm 3 mps 746 mmHg 78%
17:00 +13°C° 0 mm 3 mps 746 mmHg 81%
18:00 +13°C° 0 mm 4 mps 746 mmHg 83%
19:00 +12°C° 0 mm 4 mps 746 mmHg 85%
20:00 +12°C° 0 mm 4 mps 746 mmHg 86%
21:00 +12°C° 0 mm 4 mps 746 mmHg 87%
22:00 +12°C° 0 mm 4 mps 745 mmHg 87%
23:00 +11°C° 0 mm 4 mps 745 mmHg 88%

27 October, Tuesday

Time Temperature Precipitation Wind Pressure Humidity
00:00 +11°C° 0 mm 3 mps 745 mmHg 89%
01:00 +10°C° 0 mm 3 mps 745 mmHg 90%
02:00 +10°C° 0 mm 3 mps 745 mmHg 89%
03:00 +11°C° 0 mm 3 mps 745 mmHg 88%
04:00 +11°C° 0 mm 3 mps 745 mmHg 87%
05:00 +10°C° 0 mm 3 mps 746 mmHg 89%
06:00 +10°C° 0 mm 3 mps 746 mmHg 90%
07:00 +10°C° 0 mm 3 mps 746 mmHg 92%
08:00 +11°C° 0 mm 4 mps 746 mmHg 87%
09:00 +12°C° 0 mm 4 mps 747 mmHg 83%
10:00 +14°C° 0 mm 4 mps 747 mmHg 78%
11:00 +14°C° 0 mm 4 mps 747 mmHg 75%
12:00 +15°C° 0 mm 4 mps 747 mmHg 72%
13:00 +15°C° 0 mm 4 mps 748 mmHg 69%
14:00 +16°C° 0 mm 3 mps 748 mmHg 72%
15:00 +15°C° 0 mm 2 mps 748 mmHg 75%
16:00 +14°C° 0 mm 2 mps 748 mmHg 78%
17:00 +14°C° 0 mm 1 mps 748 mmHg 81%
18:00 +13°C° 0 mm 1 mps 749 mmHg 83%
19:00 +13°C° 0 mm 1 mps 749 mmHg 86%
20:00 +12°C° 0 mm 1 mps 749 mmHg 85%
21:00 +12°C° 0 mm 1 mps 750 mmHg 85%
22:00 +11°C° 0 mm 0 mps 750 mmHg 85%
23:00 +11°C° 0 mm 0 mps 750 mmHg 85%
Show more